ELY1201 LLBG-LLER

Flight info

Callsign ELY1201
Flight time 0h 38m
Altitude 20000
Route RIPUD1E TOMAL J10 NURIT NURIT1B
Aircraft B738/M-SDE2E3FGHIRWXY/LB1

Departure

Time 2026-05-04 12:28
Airport Ben Gurion International Airport (LLBG)

Arrival

Time 2026-05-04 13:06
Airport Ramon International Airport (LLER)
Time Latitude Longitude Altitude Speed Heading
2026-05-04 12:17 32.00137 34.87799 119 ft 2 kts 118°
2026-05-04 12:18 32.00144 34.87784 115 ft 9 kts 115°
2026-05-04 12:19 32.00154 34.87755 115 ft 9 kts 105°
2026-05-04 12:19 32.00157 34.87725 116 ft 9 kts 80°
2026-05-04 12:19 32.00148 34.87704 115 ft 8 kts 31°
2026-05-04 12:19 32.00148 34.87703 115 ft 40 kts 31°
2026-05-04 12:20 32.00147 34.87703 115 ft 0 kts 31°
2026-05-04 12:23 32.00149 34.87704 119 ft 2 kts 31°
2026-05-04 12:23 32.00206 34.87744 116 ft 17 kts 31°
2026-05-04 12:24 32.00348 34.87847 119 ft 31 kts 32°
2026-05-04 12:24 32.00537 34.87953 116 ft 23 kts 336°
2026-05-04 12:24 32.00643 34.87959 117 ft 0 kts 30°
2026-05-04 12:24 32.00659 34.87969 117 ft 9 kts 31°
2026-05-04 12:25 32.00761 34.88045 118 ft 25 kts 31°
2026-05-04 12:25 32.00923 34.88159 117 ft 27 kts 32°
2026-05-04 12:25 32.01077 34.88271 118 ft 25 kts 32°
2026-05-04 12:25 32.01221 34.88378 118 ft 25 kts 33°
2026-05-04 12:26 32.01365 34.88529 119 ft 32 kts 50°
2026-05-04 12:26 32.01453 34.88680 116 ft 36 kts 65°
2026-05-04 12:26 32.01522 34.88987 118 ft 40 kts 79°
2026-05-04 12:26 32.01619 34.89158 115 ft 23 kts 351°
2026-05-04 12:27 32.01738 34.89022 119 ft 22 kts 259°
2026-05-04 12:27 32.01673 34.88627 118 ft 81 kts 259°
2026-05-04 12:27 32.01591 34.88083 117 ft 118 kts 261°
2026-05-04 12:27 32.01413 34.86954 161 ft 158 kts 258°
2026-05-04 12:28 32.01211 34.85651 655 ft 168 kts 259°
2026-05-04 12:28 32.01009 34.84276 1387 ft 169 kts 254°
2026-05-04 12:28 32.00299 34.83165 2010 ft 186 kts 215°
2026-05-04 12:28 31.99001 34.82823 2647 ft 197 kts 186°
2026-05-04 12:29 31.97651 34.83168 3399 ft 211 kts 158°
2026-05-04 12:29 31.96606 34.84475 3880 ft 230 kts 118°
2026-05-04 12:29 31.96222 34.86300 4582 ft 230 kts 100°
2026-05-04 12:29 31.96005 34.88153 5301 ft 228 kts 104°
2026-05-04 12:30 31.95557 34.89963 5795 ft 236 kts 116°
2026-05-04 12:30 31.94845 34.91820 5915 ft 265 kts 119°
2026-05-04 12:30 31.94017 34.93909 6101 ft 292 kts 118°
2026-05-04 12:30 31.93200 34.96082 6777 ft 298 kts 117°
2026-05-04 12:31 31.92371 34.98354 7404 ft 305 kts 116°
2026-05-04 12:31 31.91534 35.00664 8062 ft 308 kts 116°
2026-05-04 12:31 31.90684 35.03014 8687 ft 313 kts 116°
2026-05-04 12:31 31.89825 35.05388 9337 ft 318 kts 116°
2026-05-04 12:32 31.88952 35.07798 9995 ft 322 kts 116°
2026-05-04 12:32 31.87109 35.12865 10550 ft 356 kts 116°
2026-05-04 12:32 31.86108 35.15613 10712 ft 375 kts 116°
2026-05-04 12:33 31.85055 35.18503 10850 ft 393 kts 116°
2026-05-04 12:33 31.83959 35.21520 11070 ft 407 kts 116°
2026-05-04 12:33 31.82853 35.24564 11510 ft 412 kts 116°
2026-05-04 12:33 31.81722 35.27673 12027 ft 415 kts 116°
2026-05-04 12:34 31.80580 35.30807 12525 ft 419 kts 116°
2026-05-04 12:34 31.79425 35.33970 13065 ft 423 kts 116°
2026-05-04 12:34 31.78258 35.37159 13573 ft 427 kts 116°
2026-05-04 12:34 31.77074 35.40368 14082 ft 428 kts 119°
2026-05-04 12:35 31.75453 35.43272 14486 ft 423 kts 140°
2026-05-04 12:35 31.73157 35.45340 14986 ft 412 kts 159°
2026-05-04 12:35 31.70524 35.46486 15520 ft 399 kts 175°
2026-05-04 12:35 31.67813 35.46844 16100 ft 386 kts 189°
2026-05-04 12:36 31.65176 35.46479 16660 ft 379 kts 198°
2026-05-04 12:36 31.62597 35.45839 17183 ft 379 kts 200°
2026-05-04 12:36 31.60011 35.45172 17684 ft 382 kts 200°
2026-05-04 12:36 31.57398 35.44547 18186 ft 385 kts 199°
2026-05-04 12:37 31.54765 35.43947 18629 ft 387 kts 199°
2026-05-04 12:37 31.52110 35.43356 19029 ft 389 kts 199°
2026-05-04 12:37 31.49428 35.42764 19293 ft 395 kts 199°
2026-05-04 12:37 31.46705 35.42164 19559 ft 400 kts 199°
2026-05-04 12:38 31.43956 35.41561 19911 ft 402 kts 199°
2026-05-04 12:38 31.41193 35.40955 20027 ft 408 kts 199°
2026-05-04 12:38 31.38378 35.40333 20034 ft 416 kts 199°
2026-05-04 12:38 31.35558 35.39713 20034 ft 417 kts 199°
2026-05-04 12:39 31.32710 35.39121 20019 ft 416 kts 196°
2026-05-04 12:39 31.29822 35.38782 20033 ft 417 kts 194°
2026-05-04 12:39 31.26930 35.38492 20033 ft 417 kts 194°
2026-05-04 12:39 31.24035 35.38201 20037 ft 418 kts 194°
2026-05-04 12:40 31.21136 35.37898 20041 ft 419 kts 194°
2026-05-04 12:40 31.18225 35.37586 20039 ft 420 kts 194°
2026-05-04 12:40 31.15305 35.37273 20043 ft 422 kts 194°
2026-05-04 12:40 31.12380 35.36975 20034 ft 423 kts 193°
2026-05-04 12:41 31.09443 35.36682 20050 ft 424 kts 193°
2026-05-04 12:41 31.06496 35.36387 20031 ft 425 kts 193°
2026-05-04 12:41 31.03557 35.36081 20038 ft 424 kts 194°
2026-05-04 12:41 31.00645 35.35769 20027 ft 424 kts 194°
2026-05-04 12:42 30.97705 35.35453 20034 ft 424 kts 194°
2026-05-04 12:42 30.94811 35.34973 20040 ft 415 kts 200°
2026-05-04 12:42 30.92069 35.34046 20038 ft 406 kts 209°
2026-05-04 12:42 30.89486 35.32754 20049 ft 403 kts 211°
2026-05-04 12:43 30.86912 35.31451 20042 ft 403 kts 211°
2026-05-04 12:43 30.84329 35.30158 20035 ft 404 kts 211°
2026-05-04 12:43 30.81737 35.28871 20038 ft 404 kts 210°
2026-05-04 12:43 30.79147 35.27592 20035 ft 405 kts 210°
2026-05-04 12:44 30.76544 35.26312 20036 ft 405 kts 210°
2026-05-04 12:44 30.73980 35.25054 20044 ft 406 kts 210°
2026-05-04 12:44 30.71378 35.23778 20043 ft 406 kts 210°
2026-05-04 12:44 30.68768 35.22499 20035 ft 407 kts 210°
2026-05-04 12:45 30.66154 35.21218 20037 ft 407 kts 210°
2026-05-04 12:45 30.63540 35.19937 20037 ft 408 kts 210°
2026-05-04 12:45 30.60930 35.18660 20026 ft 404 kts 210°
2026-05-04 12:45 30.58380 35.17419 20027 ft 393 kts 210°
2026-05-04 12:46 30.55825 35.16293 20028 ft 395 kts 205°
2026-05-04 12:46 30.53117 35.15582 20040 ft 404 kts 198°
2026-05-04 12:46 30.50331 35.15072 19993 ft 406 kts 197°
2026-05-04 12:46 30.47536 35.14565 19502 ft 405 kts 197°
2026-05-04 12:47 30.44770 35.14058 18943 ft 400 kts 197°
2026-05-04 12:47 30.42033 35.13546 18360 ft 396 kts 197°
2026-05-04 12:47 30.39355 35.13037 17700 ft 392 kts 197°
2026-05-04 12:47 30.36674 35.12524 17063 ft 388 kts 197°
2026-05-04 12:48 30.34016 35.12016 16447 ft 385 kts 197°
2026-05-04 12:48 30.31382 35.11510 15801 ft 382 kts 197°
2026-05-04 12:48 30.28771 35.11001 15196 ft 379 kts 197°
2026-05-04 12:48 30.26183 35.10497 14615 ft 376 kts 196°
2026-05-04 12:49 30.23614 35.09998 14042 ft 373 kts 196°
2026-05-04 12:49 30.21064 35.09496 13392 ft 370 kts 196°
2026-05-04 12:49 30.18561 35.08986 12790 ft 367 kts 196°
2026-05-04 12:49 30.16055 35.08471 12204 ft 364 kts 196°
2026-05-04 12:50 30.13570 35.07961 11640 ft 361 kts 196°
2026-05-04 12:50 30.11118 35.07460 11342 ft 351 kts 196°
2026-05-04 12:50 30.08754 35.06982 11177 ft 338 kts 196°
2026-05-04 12:50 30.06476 35.06521 11028 ft 326 kts 195°
2026-05-04 12:51 30.04272 35.06083 10861 ft 316 kts 196°
2026-05-04 12:51 30.02136 35.05664 10716 ft 306 kts 196°
2026-05-04 12:51 30.00067 35.05259 10563 ft 296 kts 197°
2026-05-04 12:51 29.98065 35.04867 10454 ft 286 kts 197°
2026-05-04 12:52 29.96131 35.04485 10319 ft 277 kts 197°
2026-05-04 12:52 29.94265 35.04118 10213 ft 267 kts 197°
2026-05-04 12:52 29.92466 35.03764 10109 ft 258 kts 197°
2026-05-04 12:52 29.90735 35.03425 10017 ft 246 kts 197°
2026-05-04 12:53 29.89073 35.03099 9859 ft 239 kts 198°
2026-05-04 12:53 29.87433 35.02779 9580 ft 239 kts 197°
2026-05-04 12:53 29.85805 35.02463 9330 ft 241 kts 197°
2026-05-04 12:53 29.84140 35.02141 9076 ft 245 kts 196°
2026-05-04 12:54 29.82451 35.01811 8804 ft 247 kts 198°
2026-05-04 12:54 29.80836 35.01199 8491 ft 243 kts 209°
2026-05-04 12:54 29.79301 35.00398 8234 ft 242 kts 210°
2026-05-04 12:54 29.77788 34.99606 7976 ft 236 kts 209°
2026-05-04 12:55 29.76314 34.98853 7724 ft 228 kts 209°
2026-05-04 12:55 29.74872 34.98155 7471 ft 223 kts 201°
2026-05-04 12:55 29.73338 34.98094 7335 ft 218 kts 181°
2026-05-04 12:55 29.71860 34.98186 7110 ft 209 kts 184°
2026-05-04 12:56 29.70452 34.98240 6959 ft 197 kts 185°
2026-05-04 12:56 29.69080 34.98281 6603 ft 198 kts 186°
2026-05-04 12:56 29.67708 34.98162 6146 ft 195 kts 208°
2026-05-04 12:56 29.66757 34.97207 5811 ft 178 kts 244°
2026-05-04 12:57 29.65838 34.96225 5479 ft 194 kts 205°
2026-05-04 12:57 29.64574 34.95769 5225 ft 191 kts 207°
2026-05-04 12:57 29.63345 34.95199 4880 ft 189 kts 210°
2026-05-04 12:57 29.62146 34.94596 4507 ft 186 kts 210°
2026-05-04 12:58 29.60980 34.93983 4315 ft 185 kts 211°
2026-05-04 12:58 29.59836 34.93370 4120 ft 178 kts 211°
2026-05-04 12:58 29.58719 34.92762 3913 ft 177 kts 212°
2026-05-04 12:58 29.57600 34.92146 3742 ft 179 kts 211°
2026-05-04 12:59 29.56477 34.91530 3478 ft 178 kts 211°
2026-05-04 12:59 29.55370 34.90915 3413 ft 178 kts 210°
2026-05-04 12:59 29.54162 34.90526 3356 ft 191 kts 187°
2026-05-04 12:59 29.52850 34.90803 3310 ft 193 kts 156°
2026-05-04 13:00 29.51856 34.91798 3305 ft 191 kts 121°
2026-05-04 13:00 29.51492 34.93205 3333 ft 178 kts 85°
2026-05-04 13:00 29.51905 34.94447 3298 ft 161 kts 35°
2026-05-04 13:00 29.52857 34.95067 3343 ft 162 kts 25°
2026-05-04 13:01 29.53838 34.95674 3310 ft 154 kts 19°
2026-05-04 13:01 29.54810 34.96121 3341 ft 151 kts 17°
2026-05-04 13:01 29.55776 34.96538 3306 ft 146 kts 13°
2026-05-04 13:01 29.56749 34.96883 3186 ft 148 kts 11°
2026-05-04 13:02 29.57740 34.97185 2982 ft 147 kts 10°
2026-05-04 13:02 29.58717 34.97469 2800 ft 148 kts 11°
2026-05-04 13:02 29.59696 34.97746 2589 ft 141 kts 13°
2026-05-04 13:02 29.60644 34.98016 2403 ft 139 kts 14°
2026-05-04 13:03 29.61604 34.98262 2224 ft 141 kts 11°
2026-05-04 13:03 29.62562 34.98535 2029 ft 142 kts 14°
2026-05-04 13:03 29.63517 34.98820 1857 ft 142 kts 10°
2026-05-04 13:03 29.64463 34.99089 1658 ft 140 kts
2026-05-04 13:04 29.65404 34.99357 1453 ft 140 kts
2026-05-04 13:04 29.66342 34.99625 1282 ft 138 kts 10°
2026-05-04 13:04 29.67298 34.99892 1101 ft 143 kts
2026-05-04 13:04 29.68245 35.00172 956 ft 137 kts
2026-05-04 13:05 29.69148 35.00411 689 ft 135 kts 14°
2026-05-04 13:05 29.70078 35.00678 539 ft 140 kts
2026-05-04 13:05 29.71014 35.00935 361 ft 135 kts 10°
2026-05-04 13:05 29.71855 35.01173 296 ft 108 kts 14°
2026-05-04 13:06 29.72438 35.01332 292 ft 64 kts 14°
2026-05-04 13:06 29.72759 35.01424 294 ft 41 kts 14°
2026-05-04 13:06 29.73022 35.01494 293 ft 37 kts 11°
2026-05-04 13:06 29.73272 35.01515 295 ft 35 kts 349°
2026-05-04 13:07 29.73455 35.01409 289 ft 24 kts 312°
2026-05-04 13:07 29.73503 35.01235 288 ft 23 kts 272°
2026-05-04 13:07 29.73528 35.01066 288 ft 14 kts 283°
2026-05-04 13:07 29.73530 35.01056 288 ft 0 kts 283°